Location: Trebic
(49.2170°N, 15.8830°E)
Time: 05:56:17
(UTC+02:00)

Courier 1B Rocket - Pass Details

Date: 26 August 2019
Orbit: 920 x 1202 km, 28.2° (Epoch: 20 September)

Event Time Altitude Azimuth Distance (km) Brightness Sun altitude
Rises 04:11:03 0° 227° (SW) 3,876 - -16.9°
Reaches altitude 10° 04:15:25 10° 203° (SSW) 2,983 - -16.3°
Exits shadow 04:16:58 12° 191° (S) 2,817 7.0 -16.1°
Maximum altitude 04:18:45 14° 175° (S) 2,761 7.0 -15.9°
Drops below altitude 10° 04:22:09 10° 148° (SSE) 3,064 7.5 -15.4°
Sets 04:26:46 0° 125° (SE) 4,066 8.5 -14.8°
